Starlink 32647

operational
NORAD ID: 62200 Int'l Des: 2024-229 Owner: SPXS Country: US Constellation: starlink
LEOCIRCULAR

Starlink 32647について

説明を読み込み中...

リアルタイム位置

3D地球を読み込み中...

次回通過

高度履歴

Altitude vs Time

uPlot chart will show altitude changes over time

軌道要素

1 62200U 24229J 25303.26581131 .00043471 00000-0 15800-2 0 9994
2 62200 43.0014 287.3714 0000767 290.4602 69.6167 15.27578911 50612
Epoch: Oct 30, 2025 • Age: 14 hours

現在のステータス

高度 493.1 km
速度 7.62 km/s
衛星直下点 -36.29°S, 176.65°E
打ち上げ日 Dec 4, 2024
運用期間 0.9 years
タイプ internet

技術仕様

分類 Payload
質量 730.00 kg
乾燥質量 700.00 kg
総質量 730.00 kg
長さ 0.30 m
直径 4.10 m
スパン 29.00 m
形状 Box + pan
製造者 SPXS
バスタイプ Starlink V2M
フェーズステータス In Orbit
所有者/国 SPXS/US

大規模コンステレーション

Loading constellations...